Location: Marstown
(39.5056°N, 77.0820°W)
Time: 03:43:16
(UTC-04:00)

ARIANE 6 FM1 Upper Stage - Visible Passes

Search period start: 08 May 2026 00:00
Search period end: 18 May 2026 00:00
Orbit: 526 x 602 km, 62.0° (Epoch: 7 May)

Date Brightness Start Highest point End Pass type
(mag) Time Alt. Az. Time Alt. Az. Time Alt. Az.
8 May 2.5 20:37:34 10° NNW 20:41:33 79° NE 20:45:31 10° SE visible
9 May 2.8 20:37:06 10° NW 20:41:02 67° WSW 20:44:58 10° SSE visible
10 May 3.6 20:36:43 10° NW 20:40:29 43° WSW 20:44:14 10° SSE visible
11 May 4.4 20:36:28 10° WNW 20:39:53 28° WSW 20:43:17 10° S visible
